This is the latest recevied weather packets stored in our database for station/object W0DXV. If no packets are shown the sender has not sent any weather packets the latest 1 day(s).
| Time | Temp. | Humidity | Pressure | Rain* | Wind** | Luminosity | Snow |
|---|---|---|---|---|---|---|---|
| 1836274773 | 17.22° C | 97% | 1014.4 hPa | 0 mm | 0 m/s | 0 W/m² | - |
| 1836274470 | 17.22° C | 97% | 1014.4 hPa | 0 mm | 0 m/s | 0 W/m² | - |
| 1836274324 | 17.22° C | 97% | 1014.4 hPa | 0 mm | 0 m/s | 0 W/m² | - |
| 1836274168 | 17.22° C | 97% | 1014.2 hPa | 0 mm | 0 m/s | 0 W/m² | - |
| 1836273863 | 17.22° C | 97% | 1014.2 hPa | 0 mm | 0 m/s | 0 W/m² | - |
| 1778096635 | 21.67° C | 84% | 1008.3 hPa | 0 mm | 0.45 m/s, 244° | 337 W/m² | - |
| 1778096332 | 21.67° C | 82% | 1008.2 hPa | 0 mm | 0.45 m/s, 270° | 384 W/m² | - |
| 1778096029 | 21.67° C | 82% | 1008.4 hPa | 0 mm | 1.34 m/s, 218° | 460 W/m² | - |
| 1778095725 | 21.11° C | 84% | 1009 hPa | 0 mm | 0.89 m/s, 246° | 600 W/m² | - |
| 1778095422 | 20.56° C | 85% | 1008.6 hPa | 0 mm | 0.45 m/s, 255° | 428 W/m² | - |
| 1778095119 | 20.56° C | 86% | 1008.8 hPa | 0 mm | 0.89 m/s, 230° | 385 W/m² | - |
| 1778094815 | 20° C | 87% | 1008.6 hPa | 0 mm | 0.89 m/s, 233° | 348 W/m² | - |
| 1778094512 | 20° C | 86% | 1008.4 hPa | 0 mm | 0.89 m/s, 224° | 456 W/m² | - |
| 1778094208 | 20° C | 89% | 1008.6 hPa | 0 mm | 0.45 m/s, 237° | 430 W/m² | - |
| 1778093906 | 19.44° C | 89% | 1008.9 hPa | 0 mm | 0.45 m/s, 256° | 412 W/m² | - |
| 1778093603 | 19.44° C | 91% | 1008.6 hPa | 0 mm | 0.89 m/s, 242° | 503 W/m² | - |
| 1778093300 | 19.44° C | 90% | 1008.8 hPa | 0 mm | 0.45 m/s, 265° | 324 W/m² | - |
| 1778092997 | 18.89° C | 91% | 1009 hPa | 0 mm | 0 m/s | 286 W/m² | - |
| 1778092694 | 18.89° C | 90% | 1008.9 hPa | 0 mm | 0.45 m/s, 223° | 229 W/m² | - |
| 1778092389 | 18.89° C | 91% | 1009 hPa | 0 mm | 0.89 m/s, 232° | 226 W/m² | - |
| 1778092086 | 18.89° C | 92% | 1009.3 hPa | 0 mm | 0.45 m/s, 241° | 263 W/m² | - |
| 1778091784 | 18.89° C | 93% | 1009.3 hPa | 0 mm | 0.45 m/s, 231° | 262 W/m² | - |
| 1778091481 | 18.89° C | 94% | 1008.9 hPa | 0 mm | 0.45 m/s, 269° | 324 W/m² | - |
| 1778091179 | 18.89° C | 94% | 1008.8 hPa | 0 mm | 0.45 m/s, 248° | 338 W/m² | - |
| 1778090876 | 18.89° C | 93% | 1008.6 hPa | 0 mm | 0.45 m/s, 215° | 256 W/m² | - |
* Rain latest hour (hover to see other rain measurements)
** Current wind speed in m/s (hover to see current wind gust speed)